Preview of NWS' New Version of Forecast
This preview is not operational and should not be used for support decisions.

Regional Weather Roundup (RWR)

Issued by National Weather Service (NWS)

                            
000
ASUS43 KLSX 180707
RWRMO 

WEATHER SUMMARY FOR MISSOURI
NATIONAL WEATHER SERVICE SPRINGFIELD MO
200 AM CDT THU JUL 18 2019

NOTE: "FAIR" INDICATES FEW OR NO CLOUDS BELOW 12,000 FEET WITH NO
       SIGNIFICANT WEATHER AND/OR OBSTRUCTIONS TO VISIBILITY.
       CURRENT SKY AND/OR WEATHER CONDITIONS ARE NOT AVAILABLE FOR
       CHILLICOTHE AND FARMINGTON.

MOZ001>031-035>038-043-044-053-054-180800-
...NORTHERN AND WESTERN MISSOURI...
  
CITY           SKY/WX    TMP DP  RH WIND       PRES   REMARKS
KANSAS CTY INT PTCLDY    83  72  69 S18G29    29.86F                  
KANSAS C DTWN  CLEAR     85  70  60 S16G25    29.87S                  
LEE'S SUMMIT   CLEAR     82  70  66 SW17G29   29.89F                  
ST JOSEPH      CLEAR     84  73  69 S16G24    29.82F HX  90           
CHILLICOTHE      N/A     77  72  84 S6        29.87F                  
KIRKSVILLE     CLEAR     74  69  85 S12G21    29.89F                  
     
$$
MOZ066>068-077>081-088>096-101>105-180800-
...SOUTHWEST MISSOURI...
  
CITY           SKY/WX    TMP DP  RH WIND       PRES   REMARKS
SPRINGFIELD    CLEAR     80  72  76 S13       30.00R                  
JOPLIN         CLEAR     80  72  76 S14G26    29.96F                  
               
$$
MOZ032>034-039>042-045>050-055>058-069>072-180800-
...CENTRAL MISSOURI...  
  
CITY           SKY/WX    TMP DP  RH WIND       PRES   REMARKS
COLUMBIA       CLEAR     74  67  78 S10       29.96R                  
ROLLA          CLEAR     71  67  87 S10       30.00R                  
SEDALIA        CLEAR     72  72 100 S9        29.96R                  
WHITEMAN AFB   MOCLDY    79  73  81 S9        29.90R                  
WARRENSBURG    CLEAR     79  70  73 S8        29.92S                  
OSAGE BEACH    PTCLDY    74  67  78 S8        29.99S                  
               
$$
MOZ051-052-059>065-180800-
...EAST CENTRAL MISSOURI...
  
CITY           SKY/WX    TMP DP  RH WIND       PRES   REMARKS
ST LOUIS INTL  CLOUDY    74  68  81 SW8       29.94R                  
SPIRIT OF STL  CLEAR     73  70  90 SW5       29.93S                  
ST CHARLES       N/A    N/A N/A N/A MISG      29.92S                  
                   
$$
MOZ072>076-082>087-097>100-106>115-180800-
...SOUTH CENTRAL AND SOUTHEAST MISSOURI...
  
CITY           SKY/WX    TMP DP  RH WIND       PRES   REMARKS
CAPE GIRARDEAU FAIR      76  68  76 W13G21    29.92F                  
FARMINGTON     CLEAR     72  69  90 SW7       29.97F                  
POPLAR BLUFF   LGT RAIN  73  72  96 SW9       29.96F                  
WEST PLAINS    PTCLDY    73  67  81 S7        30.06F                  
                                       
$$